Ft Pierce, FL

6:10 PM EDT on April 22, 2018 (GMT -0400)
Saint Lucie County International

Weather History for KFPR - January, 2013

Change the Weather History Date:

Monday, January 7, 2013

  Actual Average Record
Temperature  
Mean Temperature 70 °F 62 °F  
Max Temperature 75 °F 72 °F 86 °F (1990)
Min Temperature 66 °F 51 °F 26 °F (2010)
Degree Days  
Heating Degree Days 0 5  
Month to date heating degree days 35  
Since 1 July heating degree days 158  
Cooling Degree Days 6 2  
Month to date cooling degree days 14  
Year to date cooling degree days 14  
Growing Degree Days 20 (Base 50)    
Moisture  
Dew Point 66 °F    
Average Humidity 86    
Maximum Humidity 94    
Minimum Humidity 71    
Precipitation  
Precipitation 0.00 in 0.08 in 1.18 in (1915)
Month to date precipitation 0.53  
Year to date precipitation 0.53  
Sea Level Pressure  
Sea Level Pressure 30.14 in    
Wind  
Wind Speed 5 mph (NNE)    
Max Wind Speed 14 mph    
Max Gust Speed 21 mph    
Visibility 8 miles    
Events Rain    
T = Trace of Precipitation, MM = Missing Value Source: NWS Daily Summary

Daily Weather History Graph

Daily Weather History Graph

Search for Another Location

Airport or City:

Astronomy

Jan. 07, 2013 Rise Set
Actual Time 7:13 AM EST 5:42 PM EST
Civil Twilight 6:47 AM EST 6:08 PM EST
Nautical Twilight 6:18 AM EST 6:37 PM EST
Astronomical Twilight 5:50 AM EST 7:05 PM EST
Moon 2:41 AM EST (1/7) 1:48 PM EST (1/7)
Length of Visible Light 11h 20m
Length of Day
10h 29m
Waning Crescent, 23% of the Moon is Illuminated
Jan 7
Waning Crescent
Jan 11
New
Jan 18
First Quarter
Jan 26
Full
Feb 3
Last Quarter

Hourly Weather History & Observations

Time (EST) Temp. Dew Point Humidity Pressure Visibility Wind Dir Wind Speed Gust Speed Precip Events Conditions
12:53 AM 68.0 °F 66.0 °F 93% 30.12 in 7.0 mi Calm Calm - N/A   Mostly Cloudy
1:00 AM 68.0 °F 66.2 °F 94% 30.12 in 7.0 mi Calm Calm - N/A   Overcast
1:53 AM 69.1 °F 66.9 °F 93% 30.12 in 9.0 mi Calm Calm - N/A   Overcast
2:34 AM 69.8 °F 66.2 °F 88% 30.12 in 8.0 mi NNW 3.5 mph - N/A   Overcast
2:46 AM 69.8 °F 66.2 °F 88% 30.12 in 3.0 mi NNW 3.5 mph - N/A   Overcast
2:53 AM 69.1 °F 66.9 °F 93% 30.12 in 1.8 mi NW 3.5 mph - N/A   Overcast
3:08 AM 69.8 °F 66.2 °F 88% 30.12 in 2.0 mi NW 3.5 mph - 0.00 in Rain Light Rain
3:35 AM 69.8 °F 68.0 °F 94% 30.12 in 4.0 mi Calm Calm - 0.00 in   Overcast
3:53 AM 69.1 °F 66.9 °F 93% 30.12 in 4.0 mi NNW 4.6 mph - 0.00 in   Overcast
4:49 AM 68.0 °F 66.2 °F 94% 30.11 in 6.0 mi North 3.5 mph - N/A   Overcast
4:53 AM 68.0 °F 66.0 °F 93% 30.11 in 6.0 mi North 5.8 mph - N/A   Overcast
5:53 AM 66.9 °F 64.9 °F 93% 30.13 in 6.0 mi NNW 4.6 mph - N/A   Overcast
6:32 AM 66.2 °F 64.4 °F 94% 30.13 in 6.0 mi NNW 4.6 mph - N/A   Overcast
6:53 AM 66.9 °F 64.9 °F 93% 30.14 in 7.0 mi NNW 5.8 mph - N/A   Overcast
7:14 AM 66.2 °F 64.4 °F 94% 30.15 in 8.0 mi NNW 6.9 mph - N/A   Overcast
7:21 AM 66.2 °F 64.4 °F 94% 30.15 in 8.0 mi North 6.9 mph - N/A   Overcast
7:53 AM 68.0 °F 64.9 °F 90% 30.17 in 10.0 mi North 8.1 mph - N/A   Mostly Cloudy
8:02 AM 68.0 °F 64.4 °F 88% 30.17 in 10.0 mi North 8.1 mph 19.6 mph N/A   Overcast
8:53 AM 68.0 °F 64.0 °F 87% 30.18 in 10.0 mi North 6.9 mph - N/A   Mostly Cloudy
9:53 AM 71.1 °F 64.0 °F 78% 30.19 in 10.0 mi North 10.4 mph 18.4 mph N/A   Overcast
10:53 AM 72.0 °F 64.0 °F 76% 30.18 in 10.0 mi North 9.2 mph 17.3 mph N/A   Mostly Cloudy
11:53 AM 73.9 °F 64.9 °F 73% 30.16 in 10.0 mi NNE 13.8 mph 19.6 mph N/A   Scattered Clouds
12:53 PM 73.9 °F 64.9 °F 73% 30.13 in 10.0 mi North 11.5 mph 20.7 mph N/A   Partly Cloudy
1:48 PM 75.2 °F 66.2 °F 73% 30.11 in 10.0 mi NE 10.4 mph 17.3 mph N/A   Mostly Cloudy
1:53 PM 75.2 °F 66.2 °F 73% 30.10 in 10.0 mi NE 9.2 mph 17.3 mph N/A   Mostly Cloudy
2:53 PM 75.9 °F 66.0 °F 71% 30.12 in 10.0 mi NE 6.9 mph 16.1 mph N/A   Overcast
3:15 PM 73.4 °F 66.2 °F 78% 30.12 in 10.0 mi NNE 9.2 mph - N/A   Overcast
3:43 PM 73.4 °F 66.2 °F 78% 30.12 in 10.0 mi NE 6.9 mph - N/A   Overcast
3:53 PM 73.0 °F 66.0 °F 79% 30.12 in 10.0 mi ENE 8.1 mph - 0.00 in   Overcast
4:53 PM 73.0 °F 66.0 °F 79% 30.13 in 10.0 mi ENE 8.1 mph - N/A   Partly Cloudy
5:53 PM 72.0 °F 64.9 °F 78% 30.15 in 10.0 mi ENE 8.1 mph - N/A   Overcast
6:53 PM 71.1 °F 64.9 °F 81% 30.15 in 10.0 mi ENE 4.6 mph - N/A   Overcast
7:53 PM 71.1 °F 66.0 °F 84% 30.17 in 10.0 mi East 8.1 mph - N/A   Overcast
8:26 PM 69.8 °F 66.2 °F 88% 30.18 in 6.0 mi ESE 9.2 mph - 0.00 in Rain Light Rain
8:53 PM 69.1 °F 66.9 °F 93% 30.18 in 10.0 mi East 4.6 mph - 0.00 in   Overcast
9:53 PM 69.1 °F 66.9 °F 93% 30.17 in 10.0 mi ESE 5.8 mph - 0.00 in   Overcast
10:53 PM 70.0 °F 66.9 °F 90% 30.16 in 10.0 mi East 9.2 mph - N/A   Overcast
11:53 PM 70.0 °F 66.9 °F 90% 30.16 in 10.0 mi East 4.6 mph - N/A   Overcast